Regional Weather Roundup
Issued by NWS

Home | Current Version | Previous Version | Graphics & Text | Print | Product List | Glossary Off
Versions: 1 2 3 4 5 6 7 8 9 10 11 12 13 14 15 16 17 18 19 20 21 22 23 24 25 26 27 28 29 30 31 32 33 34 35 36 37 38 39 40 41 42 43 44 45 46 47 48 49 50

000
ASUS43 KLOT 021308
RWRIL

ILLINOIS REGIONAL WEATHER ROUNDUP
NATIONAL WEATHER SERVICE CHICAGO/ROMEOVILLE IL
800 AM CDT MON MAY 02 2016

NOTE: "FAIR" INDICATES FEW OR NO CLOUDS BELOW 12,000 FEET WITH NO
SIGNIFICANT WEATHER AND/OR OBSTRUCTIONS TO VISIBILITY.

* THESE STATIONS ARE NOT UNDER NWS QUALITY CONTROL. THEY ALSO MAY NOT
  REPORT WEATHER SUCH AS PRECIPITATION OR FOG.

ILZ001-002-007-009-015-016-024-021400-
NORTHWEST ILLINOIS

CITY           SKY/WX    TMP DP  RH WIND       PRES   REMARKS
MOLINE         CLOUDY    50  45  83 N3        30.07S
STERLING*      CLOUDY    48  45  87 NE7       30.08S
SAVANNA*       CLOUDY    48  45  88 N8        30.08S
$$

ILZ003-004-008-010-011-017-018-021400-
NORTH CENTRAL ILLINOIS

CITY           SKY/WX    TMP DP  RH WIND       PRES   REMARKS
ROCKFORD       PTSUNNY   50  43  77 N13       30.09S
FREEPORT*      CLOUDY    46  42  87 N6        30.10S
ROCHELLE*      CLOUDY    47  44  91 N9        30.07S
DE KALB*       CLOUDY    47  43  84 N10       30.06F
$$

ILZ005-006-012>014-019>023-021400-
NORTHEAST ILLINOIS

CITY           SKY/WX    TMP DP  RH WIND       PRES   REMARKS
CHICAGO-OHARE  MOSUNNY   48  39  71 NE10      30.04S
CHICAGO-MIDWAY MOSUNNY   49  37  63 NE18      30.04S
AURORA           N/A     49  41  74 N13       30.05F
LANSING*       MOSUNNY   47  38  72 NE12G22   30.04S
JOLIET*        SUNNY     49  40  70 NE7       30.05S
WAUKEGAN       SUNNY     48  39  71 N7        30.06S
DUPAGE AIRPORT MOSUNNY   49  38  65 NE12      30.04F
KANKAKEE*      CLOUDY    46  42  85 NE10      30.04F
WHEELING       SUNNY     48  40  73 N9        30.07S
MORRIS*        SUNNY     48  40  74 NE5       30.04S
ROMEOVILLE*    SUNNY     48  37  67 NE13G18   30.04F
NORTHERLY ISL    N/A     46  38  73 MISG        N/A
NORTHERLY ISL    N/A     46  38  73 MISG        N/A
$$

LMZ740>746-021400-
SOUTHERN LAKE MICHIGAN

STATION/POSITION SKY/WX   TEMP    WIND        PRES    VSBY  WAVE
                          AIR SEA DIR/SP/G                  HT/PER
                          (F)     (DEG/KT/KT) (MB)    (MI)  (FT/S)
SOUTHERN BUOY              43 40   40/  8/  8 1018.1R         1/ 4
HARRISON CRIB              46     360/ 17/ 20   N/A
BURNHAM HARBOR             47     360/ 11/ 14   N/A
CALUMET HARBOR             46     350/  7/ 11 1017.0R
BURNS HARBOR               45      40/ 14/ 20 1017.9R
MICHIGAN CITY              45      20/ 20/ 22   N/A
ST. JOSEPH                 46 47                N/A           3/ 4
$$

ILZ025>027-034>036-040-047-049-050-058-095>099-021400-
WEST-CENTRAL ILLINOIS

CITY           SKY/WX    TMP DP  RH WIND       PRES   REMARKS
QUINCY         CLOUDY    50  48  93 N10       30.04F FOG
GALESBURG*     CLOUDY    47  45  92 NE10      30.06R
MACOMB*        CLOUDY    49  48  97 N7        30.08S
JACKSONVILLE*  MOSUNNY   51  47  86 N9        30.03S
PITTSFIELD*    MOSUNNY   52  48  87 N9        30.04F
$$

ILZ028>032-037-038-041>044-048-051>054-059>061-021400-
CENTRAL ILLINOIS

CITY           SKY/WX    TMP DP  RH WIND       PRES   REMARKS
PONTIAC        CLOUDY    48  45  89 NE12      30.05S
BLOOMINGTON    CLOUDY    46  46 100 N9        30.04F
DECATUR        CLOUDY    50  47  89 N10       30.00F
PEORIA         CLOUDY    48  43  82 N9        30.05R
LACON*         CLOUDY    47  42  81 NE6       30.05S
LINCOLN*       CLOUDY    50  48  93 N12       30.02F
SPRINGFIELD    CLOUDY    51  47  86 N9        30.03R
TAYLORVILLE    CLOUDY    48  46  93 N12       30.02R
$$

ILZ033-039-045-046-055>057-062-063-021400-
EAST-CENTRAL ILLINOIS

CITY           SKY/WX    TMP DP  RH WIND       PRES   REMARKS
CHAMPAIGN      CLOUDY    49  47  93 N15       29.99F FOG
RANTOUL*       CLOUDY    48  46  91 N10       30.01S
MATTOON        CLOUDY    50  45  83 N7        29.99S
PARIS*         CLOUDY    50  49  96 N6        29.99F FOG
$$

ILZ079-100>102-021400-
SOUTHWEST ILLINOIS

CITY           SKY/WX    TMP DP  RH WIND       PRES   REMARKS
BELLEVILLE     CLOUDY    53  51  92 NW3       30.03S
CAHOKIA*       CLOUDY    54  47  77 NW8       30.05R
SPARTA*        CLOUDY    53  46  79 N6        30.05R
$$

ILZ064>066-069>071-074>076-080>082-084>086-088>090-092>094-021400-
SOUTH-CENTRAL ILLINOIS

CITY           SKY/WX    TMP DP  RH WIND       PRES   REMARKS
CARBONDALE     CLOUDY    55  48  77 VRB5      30.02F
CAIRO*         CLOUDY    56  52  86 NE8       30.00F
EFFINGHAM*     CLOUDY    52  48  87 NW6       30.02F
MARION         PTSUNNY   55  50  82 E7        30.03F
MT. VERNON     CLOUDY    54  46  76 CALM      30.04R
CENTRALIA*     CLOUDY    54  50  88 CALM      30.02R
SALEM*         CLOUDY    53  49  87 N3        30.01F
METROPOLIS*    CLOUDY    56  54  91 NE6       30.03F
$$

ILZ067-068-072-073-078-083-087-091-021400-
SOUTHEAST ILLINOIS

CITY           SKY/WX    TMP DP  RH WIND       PRES   REMARKS
LAWRENCEVILLE  CLOUDY    55  49  80 NW7       30.03R
FLORA*         CLOUDY    55  50  82 N6        30.01F
FAIRFIELD*     CLOUDY    54  49  85 CALM      30.01F
HARRISBURG*    CLOUDY    55  49  80 N6        30.03F
ROBINSON*      CLOUDY    53  48  84 NW8       30.04R
CARMI*         CLOUDY    55  51  86 NW6       30.02F
$$

ABBREVIATIONS USED IN REMARKS
   TC - TEMPERATURE IN CELSIUS
  WCI - WIND CHILL INDEX
   HX - HEAT INDEX
  VSB - VISIBILITY
$$





USA.gov is the U.S. government's official web portal to all federal, state and local government web resources and services.